| time (UTC) | temp C | wind direction | speed KPH | gust KPH | rain 1hr cm | rain 24hr cm | rain mn cm | humidity % | barometer mb |
| 20260504001511 | 24 | 46 | 9.7 | 19.3 | 0.00 | 0.05 | 0.05 | 38 | 1010.0 |
| 20260504001010 | 25 | 33 | 12.9 | 19.3 | 0.00 | 0.05 | 0.05 | 38 | 1010.0 |
| 20260504000506 | 25 | 352 | 8.0 | 19.3 | 0.00 | 0.05 | 0.05 | 38 | 1010.1 |
| 20260504000018 | 25 | 49 | 11.3 | 19.3 | 0.00 | 0.05 | 0.05 | 36 | 1010.2 |
| 20260503235506 | 25 | 360 | 9.7 | 17.7 | 0.00 | 0.05 | 0.05 | 37 | 1010.2 |
| 20260503235006 | 25 | 34 | 6.4 | 16.1 | 0.00 | 0.05 | 0.05 | 39 | 1010.2 |
| 20260503234514 | 24 | 57 | 4.8 | 16.1 | 0.00 | 0.05 | 0.05 | 38 | 1010.2 |
| 20260503234007 | 24 | 26 | 4.8 | 14.5 | 0.00 | 0.05 | 0.05 | 39 | 1010.2 |
| 20260503233506 | 25 | 22 | 8.0 | 19.3 | 0.00 | 0.05 | 0.05 | 39 | 1010.2 |
| 20260503233017 | 24 | 20 | 6.4 | 19.3 | 0.00 | 0.05 | 0.05 | 39 | 1010.2 |
| 20260503232509 | 24 | 26 | 8.0 | 19.3 | 0.00 | 0.05 | 0.05 | 39 | 1010.3 |
| 20260503232007 | 24 | 15 | 8.0 | 24.1 | 0.00 | 0.05 | 0.05 | 40 | 1010.3 |
| 20260503231514 | 24 | 334 | 11.3 | 24.1 | 0.00 | 0.05 | 0.05 | 40 | 1010.4 |
| 20260503231007 | 24 | 352 | 12.9 | 24.1 | 0.00 | 0.05 | 0.05 | 40 | 1010.5 |
| 20260503230505 | 24 | 344 | 9.7 | 19.3 | 0.00 | 0.05 | 0.05 | 41 | 1010.5 |
| 20260503230013 | 25 | 352 | 8.0 | 19.3 | 0.00 | 0.05 | 0.05 | 42 | 1010.7 |
| 20260503225505 | 24 | 60 | 6.4 | 17.7 | 0.00 | 0.05 | 0.05 | 41 | 1010.7 |
| 20260503225008 | 24 | 29 | 6.4 | 16.1 | 0.00 | 0.05 | 0.05 | 42 | 1010.8 |
| 20260503224517 | 24 | 11 | 8.0 | 17.7 | 0.00 | 0.05 | 0.05 | 40 | 1010.8 |
| 20260503224008 | 24 | 35 | 6.4 | 17.7 | 0.00 | 0.05 | 0.05 | 41 | 1010.9 |
| 20260503223507 | 24 | 52 | 8.0 | 17.7 | 0.00 | 0.05 | 0.05 | 40 | 1011.0 |
| 20260503223018 | 24 | 5 | 6.4 | 17.7 | 0.00 | 0.05 | 0.05 | 39 | 1011.1 |
| 20260503222506 | 24 | 28 | 6.4 | 17.7 | 0.00 | 0.05 | 0.05 | 39 | 1011.1 |
| 20260503222008 | 25 | 36 | 8.0 | 16.1 | 0.00 | 0.05 | 0.05 | 38 | 1011.1 |
| 20260503221518 | 25 | 11 | 8.0 | 19.3 | 0.00 | 0.05 | 0.05 | 38 | 1011.2 |
| 20260503221009 | 25 | 9 | 6.4 | 19.3 | 0.00 | 0.05 | 0.05 | 38 | 1011.2 |
| 20260503220508 | 24 | 32 | 3.2 | 14.5 | 0.00 | 0.05 | 0.05 | 40 | 1011.4 |
| 20260503220016 | 24 | 9 | 6.4 | 16.1 | 0.00 | 0.05 | 0.05 | 40 | 1011.4 |
| 20260503215508 | 24 | 35 | 6.4 | 16.1 | 0.00 | 0.05 | 0.05 | 39 | 1011.5 |
| 20260503215008 | 24 | 86 | 6.4 | 14.5 | 0.00 | 0.05 | 0.05 | 40 | 1011.6 |
| 20260503214516 | 24 | 61 | 4.8 | 14.5 | 0.00 | 0.05 | 0.05 | 41 | 1011.6 |
| 20260503214011 | 24 | 9 | 6.4 | 14.5 | 0.00 | 0.05 | 0.05 | 42 | 1011.7 |
| 20260503213511 | 23 | 24 | 6.4 | 17.7 | 0.00 | 0.05 | 0.05 | 42 | 1011.7 |
| 20260503213023 | 24 | 69 | 4.8 | 17.7 | 0.00 | 0.05 | 0.05 | 42 | 1011.8 |
| 20260503212507 | 24 | 20 | 6.4 | 12.9 | 0.00 | 0.05 | 0.05 | 42 | 1011.9 |
| 20260503212010 | 24 | 19 | 4.8 | 12.9 | 0.00 | 0.05 | 0.05 | 43 | 1011.9 |
| 20260503211529 | 24 | 46 | 4.8 | 12.9 | 0.00 | 0.05 | 0.05 | 42 | 1011.9 |
| 20260503211007 | 23 | 38 | 4.8 | 14.5 | 0.00 | 0.05 | 0.05 | 43 | 1012.0 |
| 20260503210508 | 23 | 131 | 4.8 | 14.5 | 0.00 | 0.05 | 0.05 | 43 | 1012.0 |
| 20260503210020 | 23 | 5 | 9.7 | 12.9 | 0.00 | 0.05 | 0.05 | 42 | 1012.0 |
| 20260503205513 | 23 | 34 | 4.8 | 14.5 | 0.00 | 0.05 | 0.05 | 43 | 1012.1 |
| 20260503205007 | 23 | 22 | 6.4 | 14.5 | 0.00 | 0.05 | 0.05 | 44 | 1012.1 |
| 20260503204516 | 23 | 360 | 4.8 | 14.5 | 0.00 | 0.05 | 0.05 | 44 | 1012.1 |
| 20260503204009 | 23 | 348 | 9.7 | 14.5 | 0.00 | 0.05 | 0.05 | 43 | 1012.2 |
| 20260503203507 | 23 | 36 | 8.0 | 14.5 | 0.00 | 0.05 | 0.05 | 41 | 1012.2 |
| 20260503203022 | 23 | 15 | 4.8 | 12.9 | 0.00 | 0.05 | 0.05 | 43 | 1012.3 |
| 20260503202511 | 23 | 32 | 6.4 | 12.9 | 0.00 | 0.05 | 0.05 | 44 | 1012.3 |
| 20260503202012 | 23 | 351 | 4.8 | 14.5 | 0.00 | 0.05 | 0.05 | 46 | 1012.4 |
| 20260503201518 | 22 | 35 | 4.8 | 14.5 | 0.00 | 0.05 | 0.05 | 47 | 1012.4 |
| 20260503201006 | 22 | 46 | 4.8 | 14.5 | 0.00 | 0.05 | 0.05 | 48 | 1012.5 |
| 20260503200508 | 22 | 43 | 4.8 | 16.1 | 0.00 | 0.05 | 0.05 | 48 | 1012.7 |
| 20260503200020 | 22 | 352 | 8.0 | 16.1 | 0.00 | 0.05 | 0.05 | 48 | 1012.6 |
| 20260503195512 | 22 | 14 | 6.4 | 14.5 | 0.00 | 0.05 | 0.05 | 48 | 1012.7 |
| 20260503195009 | 22 | 58 | 6.4 | 14.5 | 0.00 | 0.05 | 0.05 | 48 | 1012.7 |
| 20260503194515 | 22 | 28 | 4.8 | 12.9 | 0.00 | 0.05 | 0.05 | 48 | 1012.8 |
| 20260503194008 | 22 | 26 | 8.0 | 14.5 | 0.00 | 0.05 | 0.05 | 50 | 1012.9 |
| 20260503193510 | 21 | 59 | 4.8 | 14.5 | 0.00 | 0.05 | 0.05 | 49 | 1012.9 |
| 20260503193034 | 21 | 61 | 4.8 | 16.1 | 0.00 | 0.05 | 0.05 | 51 | 1012.9 |
| 20260503192502 | 21 | 18 | 6.4 | 16.1 | 0.00 | 0.05 | 0.05 | 51 | 1012.9 |
| 20260503192002 | 21 | 346 | 6.4 | 14.5 | 0.00 | 0.05 | 0.05 | 51 | 1013.1 |
| 20260503191506 | 21 | 41 | 8.0 | 12.9 | 0.00 | 0.05 | 0.05 | 53 | 1012.9 |
| 20260503191006 | 21 | 18 | 6.4 | 12.9 | 0.00 | 0.05 | 0.05 | 51 | 1013.2 |
| 20260503190503 | 21 | 346 | 4.8 | 17.7 | 0.00 | 0.05 | 0.05 | 52 | 1013.2 |
| 20260503190018 | 21 | 23 | 6.4 | 17.7 | 0.00 | 0.05 | 0.05 | 52 | 1013.2 |
| 20260503185507 | 20 | 21 | 3.2 | 14.5 | 0.00 | 0.05 | 0.05 | 55 | 1013.2 |
| 20260503185006 | 20 | 339 | 6.4 | 14.5 | 0.00 | 0.05 | 0.05 | 54 | 1013.2 |
| 20260503184517 | 21 | 63 | 8.0 | 12.9 | 0.00 | 0.05 | 0.05 | 54 | 1013.4 |
| 20260503184006 | 20 | 54 | 4.8 | 14.5 | 0.00 | 0.05 | 0.05 | 52 | 1013.5 |
| 20260503183507 | 20 | 50 | 6.4 | 14.5 | 0.00 | 0.05 | 0.05 | 54 | 1013.5 |
| 20260503183022 | 20 | 24 | 3.2 | 12.9 | 0.00 | 0.05 | 0.05 | 55 | 1013.6 |
| 20260503182509 | 20 | 33 | 3.2 | 12.9 | 0.00 | 0.05 | 0.05 | 55 | 1013.6 |
| 20260503182008 | 20 | 15 | 4.8 | 9.7 | 0.00 | 0.05 | 0.05 | 55 | 1013.6 |
| 20260503181505 | 20 | 86 | 3.2 | 12.9 | 0.00 | 0.05 | 0.05 | 56 | 1013.7 |
| 20260503181003 | 20 | 78 | 3.2 | 12.9 | 0.00 | 0.05 | 0.05 | 57 | 1013.8 |
| 20260503180506 | 20 | 90 | 6.4 | 12.9 | 0.00 | 0.05 | 0.05 | 58 | 1013.8 |
| 20260503180008 | 20 | 13 | 6.4 | 14.5 | 0.00 | 0.05 | 0.05 | 58 | 1013.8 |
| 20260503175506 | 19 | 64 | 6.4 | 14.5 | 0.00 | 0.05 | 0.05 | 57 | 1013.8 |
| 20260503175005 | 19 | 82 | 6.4 | 14.5 | 0.00 | 0.05 | 0.05 | 55 | 1013.9 |
| 20260503174511 | 19 | 36 | 3.2 | 14.5 | 0.00 | 0.05 | 0.05 | 57 | 1013.9 |
| 20260503174006 | 19 | 103 | 4.8 | 14.5 | 0.00 | 0.05 | 0.05 | 57 | 1013.9 |
| 20260503173507 | 19 | 21 | 4.8 | 12.9 | 0.00 | 0.05 | 0.05 | 57 | 1013.8 |
| 20260503173021 | 19 | 347 | 4.8 | 12.9 | 0.00 | 0.05 | 0.05 | 1013.9 | |
| 20260503172506 | 19 | 36 | 6.4 | 12.9 | 0.00 | 0.05 | 0.05 | 57 | 1014.0 |
| 20260503172011 | 19 | 65 | 6.4 | 12.9 | 0.00 | 0.05 | 0.05 | 57 | 1014.0 |
| 20260503171522 | 19 | 84 | 6.4 | 12.9 | 0.00 | 0.05 | 0.05 | 57 | 1013.9 |
| 20260503171003 | 18 | 5 | 4.8 | 12.9 | 0.00 | 0.05 | 0.05 | 58 | 1014.0 |
| 20260503170504 | 18 | 23 | 4.8 | 14.5 | 0.00 | 0.05 | 0.05 | 60 | 1014.0 |
| 20260503151006 | 13 | 346 | 0.0 | 3.2 | 0.00 | 0.05 | 0.05 | 77 | 1014.2 |
| 20260503150507 | 13 | 263 | 0.0 | 3.2 | 0.00 | 0.05 | 0.05 | 76 | 1014.2 |
| 20260503131006 | 12 | 74 | 1.6 | 4.8 | 0.00 | 0.05 | 0.05 | 75 | 1013.7 |
| 20260503130507 | 12 | 91 | 0.0 | 3.2 | 0.00 | 0.05 | 0.05 | 75 | 1013.6 |
| 20260503110509 | 13 | 69 | 0.0 | 3.2 | 0.00 | 0.05 | 0.05 | 70 | 1013.9 |
| 20260503090506 | 16 | 352 | 0.0 | 4.8 | 0.00 | 0.05 | 0.05 | 59 | 1014.1 |
| 20260503081508 | 16 | 102 | 1.6 | 3.2 | 0.03 | 0.05 | 0.05 | 59 | 1014.3 |
| 20260503081006 | 16 | 84 | 0.0 | 4.8 | 0.05 | 0.05 | 0.05 | 57 | 1014.3 |
| 20260503080506 | 16 | 123 | 1.6 | 4.8 | 0.05 | 0.05 | 0.05 | 57 | 1014.3 |
| 20260503072509 | 15 | 63 | 0.0 | 3.2 | 0.03 | 0.03 | 0.03 | 66 | 1014.3 |
| 20260503072011 | 15 | 38 | 0.0 | 3.2 | 0.03 | 0.03 | 0.03 | 68 | 1014.3 |
| 20260503071535 | 15 | 60 | 0.0 | 3.2 | 0.03 | 0.03 | 0.03 | 65 | 1014.3 |
| 20260503071007 | 16 | 360 | 0.0 | 3.2 | 0.00 | 0.00 | 0.00 | 61 | 1014.2 |
| 20260503070503 | 17 | 35 | 1.6 | 3.2 | 0.00 | 0.00 | 0.00 | 58 | 1014.2 |
| 20260503055006 | 17 | 15 | 0.0 | 6.4 | 0.00 | 0.00 | 0.00 | 56 | 1014.1 |
| 20260503054526 | 17 | 9 | 0.0 | 3.2 | 0.00 | 0.00 | 0.00 | 56 | 1014.1 |
| 20260503054011 | 17 | 9 | 1.6 | 3.2 | 0.00 | 0.00 | 0.00 | 55 | 1014.1 |
| 20260503053506 | 17 | 40 | 0.0 | 3.2 | 0.00 | 0.00 | 0.00 | 56 | 1014.1 |
| 20260503053016 | 17 | 100 | 0.0 | 3.2 | 0.00 | 0.00 | 0.00 | 57 | 1014.1 |
| 20260503052508 | 18 | 84 | 1.6 | 4.8 | 0.00 | 0.00 | 0.00 | 56 | 1014.0 |
| 20260503052013 | 18 | 66 | 1.6 | 4.8 | 0.00 | 0.00 | 0.00 | 56 | 1013.9 |
| 20260503051524 | 18 | 107 | 1.6 | 4.8 | 0.00 | 0.00 | 0.00 | 56 | 1013.8 |
| 20260503051010 | 18 | 63 | 1.6 | 6.4 | 0.00 | 0.00 | 0.00 | 56 | 1013.9 |
| 20260503050507 | 18 | 13 | 1.6 | 8.0 | 0.00 | 0.00 | 0.00 | 56 | 1013.9 |
| 20260503050025 | 18 | 23 | 1.6 | 8.0 | 0.00 | 0.00 | 0.00 | 57 | 1013.7 |
| 20260503045514 | 17 | 49 | 1.6 | 3.2 | 0.00 | 0.00 | 0.00 | 58 | 1013.8 |
| 20260503045007 | 17 | 71 | 1.6 | 4.8 | 0.00 | 0.00 | 0.00 | 58 | 1013.8 |
| 20260503044513 | 17 | 43 | 1.6 | 4.8 | 0.00 | 0.00 | 0.00 | 59 | 1013.8 |
| 20260503044003 | 17 | 29 | 1.6 | 4.8 | 0.00 | 0.00 | 0.00 | 59 | 1013.7 |
| 20260503043507 | 17 | 93 | 1.6 | 4.8 | 0.00 | 0.00 | 0.00 | 59 | 1013.7 |
| 20260503043014 | 17 | 66 | 3.2 | 8.0 | 0.00 | 0.00 | 0.00 | 59 | 1013.7 |
| 20260503042508 | 17 | 107 | 3.2 | 8.0 | 0.00 | 0.00 | 0.00 | 59 | 1013.6 |
| 20260503042008 | 17 | 69 | 1.6 | 9.7 | 0.00 | 0.00 | 0.00 | 59 | 1013.6 |
| 20260503041518 | 17 | 88 | 4.8 | 9.7 | 0.00 | 0.00 | 0.00 | 59 | 1013.6 |
| 20260503041008 | 17 | 107 | 3.2 | 8.0 | 0.00 | 0.00 | 0.00 | 60 | 1013.6 |
| 20260503040516 | 17 | 21 | 3.2 | 14.5 | 0.00 | 0.00 | 0.00 | 60 | 1013.5 |
| 20260503040026 | 17 | 47 | 3.2 | 14.5 | 0.00 | 0.00 | 0.00 | 58 | 1013.5 |
| 20260503035511 | 17 | 50 | 4.8 | 12.9 | 0.00 | 0.00 | 0.00 | 58 | 1013.4 |
| 20260503035013 | 17 | 20 | 3.2 | 9.7 | 0.00 | 0.00 | 0.00 | 57 | 1013.4 |
| 20260503034526 | 17 | 65 | 4.8 | 9.7 | 0.00 | 0.00 | 0.00 | 58 | 1013.3 |
| 20260503034007 | 17 | 94 | 1.6 | 9.7 | 0.00 | 0.00 | 0.00 | 57 | 1013.2 |
| 20260503033504 | 17 | 28 | 3.2 | 11.3 | 0.00 | 0.00 | 0.00 | 57 | 1013.2 |
| 20260503033022 | 18 | 85 | 1.6 | 12.9 | 0.00 | 0.00 | 0.00 | 57 | 1013.1 |
| 20260503032509 | 18 | 54 | 6.4 | 12.9 | 0.00 | 0.00 | 0.00 | 56 | 1013.1 |
| 20260503032006 | 18 | 51 | 3.2 | 12.9 | 0.00 | 0.00 | 0.00 | 56 | 1013.1 |
| 20260503031520 | 18 | 89 | 4.8 | 12.9 | 0.00 | 0.00 | 0.00 | 56 | 1013.0 |
| 20260503031008 | 18 | 94 | 3.2 | 12.9 | 0.00 | 0.00 | 0.00 | 56 | 1013.0 |
| 20260503030510 | 18 | 54 | 3.2 | 11.3 | 0.00 | 0.00 | 0.00 | 56 | 1013.0 |
| 20260503030021 | 18 | 11 | 3.2 | 11.3 | 0.00 | 0.00 | 0.00 | 56 | 1012.9 |
| 20260503025510 | 18 | 75 | 4.8 | 14.5 | 0.00 | 0.00 | 0.00 | 55 | 1012.9 |
| 20260503025009 | 18 | 65 | 4.8 | 14.5 | 0.00 | 0.00 | 0.00 | 54 | 1012.9 |
| 20260503024523 | 19 | 40 | 3.2 | 9.7 | 0.00 | 0.00 | 0.00 | 54 | 1012.9 |
| 20260503024009 | 19 | 90 | 4.8 | 9.7 | 0.00 | 0.00 | 0.00 | 54 | 1012.9 |
| 20260503023510 | 19 | 27 | 4.8 | 12.9 | 0.00 | 0.00 | 0.00 | 54 | 1012.8 |
| 20260503023025 | 19 | 34 | 6.4 | 14.5 | 0.00 | 0.00 | 0.00 | 52 | 1012.8 |
| 20260503022507 | 20 | 26 | 6.4 | 14.5 | 0.00 | 0.00 | 0.00 | 52 | 1012.8 |
| 20260503022006 | 20 | 24 | 3.2 | 12.9 | 0.00 | 0.00 | 0.00 | 52 | 1012.7 |
| 20260503021516 | 20 | 99 | 3.2 | 12.9 | 0.00 | 0.00 | 0.00 | 52 | 1012.8 |
| 20260503021007 | 20 | 55 | 3.2 | 14.5 | 0.00 | 0.00 | 0.00 | 52 | 1012.8 |
| 20260503020507 | 20 | 57 | 6.4 | 17.7 | 0.00 | 0.00 | 0.00 | 50 | 1012.8 |
| 20260503020020 | 20 | 108 | 4.8 | 22.5 | 0.00 | 0.00 | 0.00 | 49 | 1012.9 |
| 20260503015508 | 20 | 48 | 12.9 | 22.5 | 0.00 | 0.00 | 0.00 | 47 | 1012.8 |
| 20260503015010 | 21 | 64 | 4.8 | 12.9 | 0.00 | 0.00 | 0.00 | 49 | 1012.8 |
| 20260503014525 | 21 | 352 | 1.6 | 12.9 | 0.00 | 0.00 | 0.00 | 49 | 1012.8 |
| 20260503014009 | 21 | 342 | 3.2 | 11.3 | 0.00 | 0.00 | 0.00 | 48 | 1012.8 |
| 20260503013511 | 21 | 299 | 4.8 | 12.9 | 0.00 | 0.00 | 0.00 | 49 | 1012.9 |
| 20260503013026 | 21 | 86 | 3.2 | 12.9 | 0.00 | 0.00 | 0.00 | 49 | 1012.8 |
| 20260503012506 | 22 | 51 | 6.4 | 12.9 | 0.00 | 0.00 | 0.00 | 47 | 1012.9 |
| 20260503012007 | 22 | 99 | 1.6 | 14.5 | 0.00 | 0.00 | 0.00 | 48 | 1012.9 |
| 20260503011514 | 22 | 360 | 3.2 | 14.5 | 0.00 | 0.00 | 0.00 | 47 | 1013.0 |
| 20260503011005 | 22 | 49 | 1.6 | 17.7 | 0.00 | 0.00 | 0.00 | 48 | 1012.9 |
| 20260503010505 | 22 | 53 | 1.6 | 17.7 | 0.00 | 0.00 | 0.00 | 1012.9 | |
| 20260503010019 | 21 | 45 | 8.0 | 17.7 | 0.00 | 0.00 | 0.00 | 48 | 1013.1 |
| 20260503005508 | 21 | 36 | 8.0 | 14.5 | 0.00 | 0.00 | 0.00 | 48 | 1013.1 |
| 20260503005012 | 21 | 341 | 3.2 | 14.5 | 0.00 | 0.00 | 0.00 | 48 | 1013.1 |
| 20260503004528 | 21 | 5 | 6.4 | 16.1 | 0.00 | 0.00 | 0.00 | 47 | 1013.2 |
| 20260503004011 | 22 | 352 | 6.4 | 16.1 | 0.00 | 0.00 | 0.00 | 47 | 1013.2 |
| 20260503003504 | 22 | 17 | 4.8 | 12.9 | 0.00 | 0.00 | 0.00 | 47 | 1013.2 |
| 20260503003020 | 22 | 348 | 3.2 | 12.9 | 0.00 | 0.00 | 0.00 | 49 | 1013.1 |
| 20260503002505 | 22 | 329 | 3.2 | 8.0 | 0.00 | 0.00 | 0.00 | 50 | 1013.1 |
| 20260503002007 | 22 | 267 | 1.6 | 12.9 | 0.00 | 0.00 | 0.00 | 49 | 1013.1 |